Regional Weather Roundup
Issued by NWS Upton, NY

Current Version | Previous Version | Text Only | Print | Product List | Glossary On
Versions: 1 2 3 4 5 6 7 8 9 10 11 12 13 14 15 16 17 18 19 20 21 22 23 24 25 26 27 28 29 30 31 32 33 34 35 36 37 38 39 40 41 42 43 44 45 46 47 48 49 50
000
ASUS41 KOKX 260804
RWROKX

REGIONAL WEATHER ROUNDUP
NATIONAL WEATHER SERVICE NEW YORK NY
400 AM EDT FRI AUG 26 2016

NOTE: "FAIR" INDICATES FEW OR NO CLOUDS BELOW 12,000 FEET WITH NO
SIGNIFICANT WEATHER AND/OR OBSTRUCTIONS TO VISIBILITY.

NYZ071-072-176-178-NJZ106-104-260900-
NEW YORK CITY METRO AREA

CITY           SKY/WX    TMP DP  RH WIND       PRES   REMARKS
Central Park     N/A     77  70  78 MISG        N/A
LaGuardia APRT FAIR      79  70  74 SW9       29.98R
Kennedy INTL   FAIR      74  71  91 S8        30.00S
Newark/Liberty FAIR      76  70  82 SW9       29.98S
Bronx Bot Gard   N/A     77  68  73 SW7       30.01R
Wall St Helipt PTSUNNY   77  72  83 SW7       29.99F
Teterboro      FAIR      76  70  82 S6        29.97S
$$

NYZ177-179-078>081-260900-
LONG ISLAND NEW YORK

CITY           SKY/WX    TMP DP  RH WIND       PRES   REMARKS
Farmingdale    FAIR      74  70  87 SW9       30.00S
MacArthur/ISP  FAIR      74  71  91 SW10      29.99S
Shirley        FAIR      74  71  91 SW8       30.00S
Riverhead      NOT AVBL
Westhampton    FAIR      73  70  90 SW8       30.01F
Southampton      N/A     73  70  88 SW3       29.96S
Bridgehampton    N/A     72  68  88 S1        29.99S
East Hampton   FAIR      73  69  89 SW7       29.99S
Montauk          N/A     74  71  91 SW8G20    30.00S
$$

NYZ052-065-067-260900-
HUDSON VALLEY

CITY           SKY/WX    TMP DP  RH WIND       PRES   REMARKS
White Plains   MOCLDY    76  71  85 CALM      29.99R
Newburgh       PTCLDY    72  72 100 CALM      29.99S
Montgomery     FAIR      70  69  97 CALM      29.97F FOG
Poughkeepsie   FAIR      70  69  97 CALM      29.95F
Albany         LGT RAIN  72  69  90 SE6       29.93F FOG
$$

NJZ001-105-106-008-010-013-015-019>022-104-260900-
NEW JERSEY

CITY           SKY/WX    TMP DP  RH WIND       PRES   REMARKS
Newark/Liberty FAIR      76  70  82 SW9       29.98S
Teterboro      FAIR      76  70  82 S6        29.97S
Caldwell       FAIR      75  71  87 VRB3      29.98F
Morristown     FAIR      68  68 100 CALM      29.98F FOG
Somerville     FAIR      69  68  96 CALM      29.96F FOG
Linden         FAIR      76  69  79 CALM      30.00F
Sussex         FAIR      68  68 100 CALM      29.98F FOG
Abdover          N/A     70  69  97 CALM      29.99F
Trenton        FAIR      74  69  85 SE7       29.98F
Millville      FAIR      73  72  96 SW3       30.02S
Atlantic City  FAIR      74  68  81 S7        30.01S
Wrightstown    MOCLDY    71  69  92 SW2       29.99R
Toms River     FAIR      72  68  87 SW7       30.01S
Belmar         FAIR      72  68  87 S7        30.02R
$$

PAZ047>061-062-071-260900-
EASTERN PENNSYLVANIA

CITY           SKY/WX    TMP DP  RH WIND       PRES   REMARKS
Philadelphia   FAIR      76  70  82 S7        30.00F
Allentown      FAIR      72  69  90 NW5       29.99R FOG
Scranton       CLOUDY    74  72  93 SW3       29.99S
$$

CTZ002-004>006-009-010-012-RIZ004-006-007-MAZ004-011-015-260900-
SOUTHERN NEW ENGLAND
 IN CT

CITY           SKY/WX    TMP DP  RH WIND       PRES   REMARKS
Bradley INTL   FAIR      71  68  90 S7        29.96F
Hartford       FAIR      74  70  87 S5        29.96S
Danbury        FAIR      74  70  87 SW6       29.99S
Wtrbury/Oxford   N/A     70  64  83 S3        30.00F
Bridgeport     FAIR      77  71  82 SW9       29.98R
Meriden        FAIR      72  68  87 S3        29.97S
New Haven      FAIR      75  71  87 S6        29.98S
Chester        FAIR      73  72  94 SW6       30.00R
Groton         FAIR      74  70  87 SW7       29.98S
Wilimantic     MOCLDY    70  69  97 CALM      29.98F

 IN RI

CITY           SKY/WX    TMP DP  RH WIND       PRES   REMARKS
Providence     FAIR      74  69  85 SW9       29.98S
Block Island   CLOUDY    74  71  91 SW15      30.00S
Westerly       MOCLDY    75  68  78 SW8       29.99S
 IN MA

CITY           SKY/WX    TMP DP  RH WIND       PRES   REMARKS
Boston         FAIR      73  69  87 SW7       29.95S
Worcester      FAIR      67  65  93 SW9       29.99S
Westfield      FAIR      69  67  93 CALM      29.96S
Provincetown   MOCLDY    71  69  93 S12       29.97F
Nantucket      CLOUDY    71  69  93 S10       30.00F
$$

ANZ330-335-338-340-345-350-353-355-260900-
COASTAL MARINE OBSERVATIONS


STATION/POSITION TIME  SKY/WX   TEMP    WIND        PRES    VSBY  WAVE
                                AIR SEA DIR/SP/G                  HT/PER
                 (UTC)          (F)     (DEG/KT/KT) (MB)    (MI)  (FT/S)
NY HARB ENTRANCE 0650            75 72  220/ 14/ 16 1015.2          3/ 5
20S FIRE ISLAND  0650            76 74  220/ 16/ 17 1015.4          4/ 5
GREAT SOUTH BAY  0700            76 78  240/ 12/ 14   N/A
23 SSW MONTAUK P 0650            76 74  220/ 17/ 19 1015.8          4/ 6
15 E BARNEGAT LI 0700               74                N/A           4/ 5
HUDSON CANYON    0650            78 78              1016.3          4/ 5
KINGS POINT      0700            75 76              1015.0
EXECUTION ROCKS  0700            76     190/ 10/ 12   N/A
CENTRAL LI SOUND 0715            75 75  210/ 12/ 16   N/A           1/ 3
EASTERN LI SOUND 0700            74 71  230/ 10/ 14   N/A
ROBBINS REEF     0700            77     230/  5/  7 1014.8
$$


>>>>>>>>>>>>>>>>>>>>>>>>>>>> KEY <<<<<<<<<<<<<<<<<<<<<<<<<<<
>                                                          <
>     SKY/WX - Sky Condition/Present Weather               <
>     TMP    - Temperature in Fahrenheit                   <
>     DP     - Dew Point in Fahrenheit                     <
>     RH     - Relative Humidity in Percent                <
>     WIND   - Direction (from) and Speed in MPH           <
>     PRES   - Mean Sea Level Pressure (inches of Hg)      <
>     WCI    - Wind Chill Index                            <
>     VSB    - VISIBILITY IN MILES                         <
>     HX     - HEAT INDEX                                  <
>     TC     - TEMPERATURE IN CELSIUS                      <
>     VRB    - VARIABLE WIND DIRECTION                     <
>                                                          <
>>>>>>>>>>>>>>>>>>>>>>>>>>>> KEY <<<<<<<<<<<<<<<<<<<<<<<<<<<



USA.gov is the U.S. government's official web portal to all federal, state and local government web resources and services.